This is the latest recevied weather packets stored in our database for station/object NR0Q. If no packets are shown the sender has not sent any weather packets the latest 10 day(s).
| Time | Temp. | Humidity | Pressure | Rain* | Wind** | Luminosity | Snow |
|---|---|---|---|---|---|---|---|
| 1778114702 | 15.56° C | 45% | 1017.6 hPa | 0 mm | - | - | - |
| 1778113801 | 16.11° C | 44% | 1017.6 hPa | 0 mm | - | - | - |
| 1778112902 | 16.67° C | 41% | 1017.6 hPa | 0 mm | - | - | - |
| 1778112001 | 16.67° C | 39% | 1017.6 hPa | 0 mm | - | - | - |
| 1778111101 | 16.67° C | 37% | 1017.6 hPa | 0 mm | - | - | - |
| 1778110201 | 17.22° C | 40% | 1017.6 hPa | 0 mm | - | - | - |
| 1778109302 | 17.22° C | 40% | 1016.6 hPa | 0 mm | - | - | - |
| 1778108402 | 17.78° C | 41% | 1016.6 hPa | 0 mm | - | - | - |
| 1778107502 | 17.78° C | 38% | 1016.6 hPa | 0 mm | - | - | - |
| 1778106601 | 17.78° C | 39% | 1016.6 hPa | 0 mm | - | - | - |
| 1778105702 | 17.78° C | 39% | 1016.6 hPa | 0 mm | - | - | - |
| 1778104802 | 17.78° C | 38% | 1016.6 hPa | 0 mm | - | - | - |
| 1778103902 | 17.78° C | 39% | 1016.6 hPa | 0 mm | - | - | - |
| 1778103002 | 17.22° C | 40% | 1016.6 hPa | 0 mm | - | - | - |
| 1778102101 | 17.22° C | 40% | 1016.6 hPa | 0 mm | - | - | - |
| 1778101202 | 17.22° C | 42% | 1016.6 hPa | 0 mm | - | - | - |
| 1778100301 | 18.33° C | 39% | 1017.6 hPa | 0 mm | - | - | - |
| 1778099401 | 18.33° C | 40% | 1017.6 hPa | 0 mm | - | - | - |
| 1778098501 | 18.33° C | 40% | 1017.6 hPa | 0 mm | - | - | - |
| 1778097602 | 18.33° C | 40% | 1017.6 hPa | 0 mm | - | - | - |
| 1778096702 | 18.33° C | 41% | 1017.6 hPa | 0 mm | - | - | - |
| 1778095802 | 17.78° C | 43% | 1017.6 hPa | 0 mm | - | - | - |
| 1778094901 | 17.78° C | 41% | 1017.6 hPa | 0 mm | - | - | - |
| 1778094001 | 17.78° C | 42% | 1017.6 hPa | 0 mm | - | - | - |
| 1778093101 | 17.22° C | 39% | 1018.6 hPa | 0 mm | - | - | - |
* Rain latest hour (hover to see other rain measurements)
** Current wind speed in m/s (hover to see current wind gust speed)